APN106 GCFV-GVBA

Flight info

Callsign APN106
Flight time 2h 17m
Altitude 35000
Route LORPO DCT GDV N873 ODEGI/N0486F340 Z27 BIPET N857 GUNET UW11 PINPO PINPO1P
Aircraft B77L/H-SDE1E2E3FGHIJ2J3J4J5M1RWXY/LB1D1

Departure

Time 2026-04-26 04:06
Airport Fuerteventura Airport (GCFV)

Arrival

Time 2026-04-26 06:24
Airport Aristides Pereira International Airport (GVBA)
Time Latitude Longitude Altitude Speed Heading
2026-04-26 03:44 28.44872 -13.86828 68 ft 0 kts 270°
2026-04-26 03:52 28.44872 -13.86802 63 ft 4 kts 275°
2026-04-26 03:53 28.44870 -13.86778 60 ft 4 kts 245°
2026-04-26 03:53 28.44881 -13.86759 59 ft 4 kts 214°
2026-04-26 03:53 28.44903 -13.86750 59 ft 4 kts 183°
2026-04-26 03:53 28.44922 -13.86749 61 ft 1 kts 182°
2026-04-26 03:54 28.44925 -13.86749 61 ft 1 kts 182°
2026-04-26 03:58 28.44920 -13.86749 60 ft 2 kts 182°
2026-04-26 03:59 28.44872 -13.86752 59 ft 12 kts 183°
2026-04-26 03:59 28.44759 -13.86755 59 ft 18 kts 182°
2026-04-26 03:59 28.44636 -13.86759 61 ft 18 kts 181°
2026-04-26 03:59 28.44511 -13.86763 59 ft 18 kts 181°
2026-04-26 04:00 28.44386 -13.86767 51 ft 18 kts 181°
2026-04-26 04:00 28.44262 -13.86771 49 ft 18 kts 181°
2026-04-26 04:00 28.44160 -13.86775 50 ft 11 kts 181°
2026-04-26 04:00 28.44105 -13.86772 49 ft 9 kts 166°
2026-04-26 04:01 28.44067 -13.86723 48 ft 9 kts 103°
2026-04-26 04:01 28.44058 -13.86655 47 ft 9 kts 111°
2026-04-26 04:01 28.44011 -13.86617 46 ft 9 kts 170°
2026-04-26 04:01 28.43941 -13.86614 44 ft 11 kts 180°
2026-04-26 04:02 28.43861 -13.86617 42 ft 12 kts 184°
2026-04-26 04:02 28.43772 -13.86621 40 ft 13 kts 181°
2026-04-26 04:02 28.43676 -13.86624 38 ft 15 kts 181°
2026-04-26 04:02 28.43570 -13.86627 35 ft 16 kts 181°
2026-04-26 04:03 28.43457 -13.86631 32 ft 17 kts 181°
2026-04-26 04:03 28.43338 -13.86633 29 ft 17 kts 180°
2026-04-26 04:03 28.43318 -13.86633 29 ft 2 kts 179°
2026-04-26 04:03 28.43300 -13.86631 28 ft 4 kts 173°
2026-04-26 04:04 28.43264 -13.86607 28 ft 7 kts 123°
2026-04-26 04:04 28.43251 -13.86550 28 ft 7 kts 97°
2026-04-26 04:04 28.43267 -13.86496 29 ft 7 kts 54°
2026-04-26 04:04 28.43305 -13.86456 31 ft 7 kts 30°
2026-04-26 04:05 28.43355 -13.86444 32 ft 7 kts
2026-04-26 04:05 28.43407 -13.86441 32 ft 7 kts
2026-04-26 04:05 28.43414 -13.86440 32 ft 6 kts
2026-04-26 04:05 28.43727 -13.86429 38 ft 90 kts
2026-04-26 04:06 28.44636 -13.86402 56 ft 169 kts
2026-04-26 04:06 28.46010 -13.86350 158 ft 219 kts
2026-04-26 04:06 28.47618 -13.86306 671 ft 240 kts
2026-04-26 04:06 28.49360 -13.86100 1167 ft 260 kts 21°
2026-04-26 04:07 28.50758 -13.84858 2205 ft 259 kts 58°
2026-04-26 04:07 28.51248 -13.82923 3199 ft 260 kts 93°
2026-04-26 04:07 28.50792 -13.80938 4092 ft 264 kts 120°
2026-04-26 04:07 28.49575 -13.79422 4955 ft 267 kts 149°
2026-04-26 04:08 28.47831 -13.78744 5833 ft 269 kts 178°
2026-04-26 04:08 28.45998 -13.79103 6686 ft 272 kts 206°
2026-04-26 04:08 28.44513 -13.80417 7508 ft 274 kts 234°
2026-04-26 04:08 28.43754 -13.82396 8333 ft 277 kts 262°
2026-04-26 04:09 28.43730 -13.84583 9040 ft 280 kts 274°
2026-04-26 04:09 28.43895 -13.86820 9785 ft 286 kts 276°
2026-04-26 04:09 28.44084 -13.89081 10550 ft 292 kts 276°
2026-04-26 04:09 28.44280 -13.91475 10832 ft 317 kts 275°
2026-04-26 04:10 28.44478 -13.94043 11044 ft 343 kts 275°
2026-04-26 04:10 28.44683 -13.96838 11335 ft 365 kts 275°
2026-04-26 04:10 28.44887 -13.99763 11981 ft 376 kts 275°
2026-04-26 04:10 28.45089 -14.02753 12760 ft 383 kts 274°
2026-04-26 04:11 28.45293 -14.05777 13620 ft 386 kts 274°
2026-04-26 04:11 28.45498 -14.08839 14444 ft 390 kts 274°
2026-04-26 04:11 28.45397 -14.11896 15036 ft 393 kts 256°
2026-04-26 04:11 28.44323 -14.14763 15733 ft 398 kts 237°
2026-04-26 04:12 28.42577 -14.17143 16419 ft 396 kts 229°
2026-04-26 04:12 28.41135 -14.19810 16775 ft 405 kts 252°
2026-04-26 04:12 28.40718 -14.22968 17395 ft 404 kts 268°
2026-04-26 04:12 28.40568 -14.26173 17907 ft 408 kts 261°
2026-04-26 04:13 28.39675 -14.29258 18397 ft 416 kts 244°
2026-04-26 04:13 28.38247 -14.32121 19113 ft 418 kts 238°
2026-04-26 04:13 28.36679 -14.34918 19831 ft 421 kts 237°
2026-04-26 04:13 28.35119 -14.37740 20464 ft 425 kts 238°
2026-04-26 04:14 28.33594 -14.40637 21049 ft 429 kts 240°
2026-04-26 04:14 28.32103 -14.43597 21647 ft 434 kts 241°
2026-04-26 04:14 28.30653 -14.46556 22215 ft 437 kts 241°
2026-04-26 04:14 28.29181 -14.49595 22800 ft 441 kts 241°
2026-04-26 04:15 28.27703 -14.52654 23362 ft 445 kts 241°
2026-04-26 04:15 28.26206 -14.55743 23907 ft 448 kts 241°
2026-04-26 04:15 28.24696 -14.58847 24432 ft 452 kts 241°
2026-04-26 04:15 28.23187 -14.61993 24945 ft 455 kts 243°
2026-04-26 04:16 28.21923 -14.65297 25437 ft 459 kts 250°
2026-04-26 04:16 28.20934 -14.68753 25928 ft 462 kts 255°
2026-04-26 04:16 28.20255 -14.72271 26391 ft 465 kts 259°
2026-04-26 04:16 28.19637 -14.75883 26862 ft 469 kts 259°
2026-04-26 04:17 28.19023 -14.79527 27300 ft 472 kts 259°
2026-04-26 04:17 28.18399 -14.83187 27726 ft 475 kts 259°
2026-04-26 04:17 28.17761 -14.86876 28155 ft 478 kts 259°
2026-04-26 04:17 28.17110 -14.90578 28568 ft 481 kts 258°
2026-04-26 04:18 28.16449 -14.94308 28963 ft 484 kts 258°
2026-04-26 04:18 28.15781 -14.98051 29322 ft 487 kts 258°
2026-04-26 04:18 28.15115 -15.01772 29667 ft 489 kts 258°
2026-04-26 04:18 28.14438 -15.05553 30032 ft 491 kts 258°
2026-04-26 04:19 28.13758 -15.09346 30463 ft 490 kts 258°
2026-04-26 04:19 28.13079 -15.13127 30955 ft 488 kts 258°
2026-04-26 04:19 28.12404 -15.16884 31430 ft 487 kts 258°
2026-04-26 04:19 28.11729 -15.20636 31855 ft 486 kts 258°
2026-04-26 04:20 28.11053 -15.24387 32240 ft 485 kts 258°
2026-04-26 04:20 28.10378 -15.28125 32637 ft 485 kts 258°
2026-04-26 04:20 28.09703 -15.31864 33018 ft 484 kts 258°
2026-04-26 04:20 28.09028 -15.35587 33390 ft 483 kts 258°
2026-04-26 04:21 28.08208 -15.39214 33654 ft 482 kts 248°
2026-04-26 04:21 28.06629 -15.42550 33882 ft 483 kts 234°
2026-04-26 04:21 28.04387 -15.45408 33949 ft 488 kts 220°
2026-04-26 04:22 27.98730 -15.49654 33996 ft 489 kts 212°
2026-04-26 04:22 27.92956 -15.53752 33996 ft 491 kts 213°
2026-04-26 04:23 27.87211 -15.57939 34005 ft 492 kts 213°
2026-04-26 04:23 27.81510 -15.62130 34004 ft 491 kts 213°
2026-04-26 04:24 27.75799 -15.66319 33998 ft 488 kts 213°
2026-04-26 04:24 27.70125 -15.70469 34003 ft 487 kts 213°
2026-04-26 04:25 27.64409 -15.74649 34014 ft 499 kts 213°
2026-04-26 04:25 27.58565 -15.78920 34006 ft 501 kts 213°
2026-04-26 04:26 27.52722 -15.83186 33998 ft 500 kts 213°
2026-04-26 04:26 27.46889 -15.87439 34000 ft 499 kts 213°
2026-04-26 04:27 27.41069 -15.91677 34000 ft 498 kts 213°
2026-04-26 04:27 27.35291 -15.95880 34001 ft 497 kts 213°
2026-04-26 04:28 27.29487 -16.00095 34001 ft 496 kts 213°
2026-04-26 04:28 27.23689 -16.04301 34002 ft 496 kts 213°
2026-04-26 04:29 27.17891 -16.08501 34001 ft 496 kts 213°
2026-04-26 04:29 27.12132 -16.12669 34001 ft 496 kts 213°
2026-04-26 04:30 27.06332 -16.16861 34001 ft 496 kts 213°
2026-04-26 04:30 27.00529 -16.21051 34001 ft 496 kts 213°
2026-04-26 04:31 26.94718 -16.25241 34001 ft 496 kts 213°
2026-04-26 04:31 26.88498 -16.28407 34008 ft 497 kts 195°
2026-04-26 04:32 26.81675 -16.29473 34008 ft 497 kts 182°
2026-04-26 04:32 26.74758 -16.29640 33999 ft 498 kts 181°
2026-04-26 04:33 26.67834 -16.29812 34002 ft 498 kts 181°
2026-04-26 04:33 26.60899 -16.30042 34001 ft 498 kts 182°
2026-04-26 04:34 26.54015 -16.30297 33999 ft 498 kts 182°
2026-04-26 04:34 26.47084 -16.30558 34001 ft 498 kts 182°
2026-04-26 04:35 26.40151 -16.30815 34002 ft 498 kts 182°
2026-04-26 04:35 26.33220 -16.31070 34002 ft 498 kts 182°
2026-04-26 04:36 26.26336 -16.31322 34001 ft 498 kts 182°
2026-04-26 04:36 26.19407 -16.31575 33998 ft 498 kts 182°
2026-04-26 04:37 26.12480 -16.31828 34002 ft 498 kts 182°
2026-04-26 04:37 26.05555 -16.32081 34002 ft 498 kts 182°
2026-04-26 04:38 25.98669 -16.32333 34001 ft 498 kts 182°
2026-04-26 04:38 25.91745 -16.32585 34000 ft 498 kts 182°
2026-04-26 04:39 25.84822 -16.32837 34001 ft 498 kts 182°
2026-04-26 04:39 25.77900 -16.33088 34001 ft 498 kts 182°
2026-04-26 04:40 25.70977 -16.33340 34002 ft 498 kts 182°
2026-04-26 04:40 25.64101 -16.33589 34001 ft 498 kts 182°
2026-04-26 04:41 25.57178 -16.33840 34001 ft 498 kts 182°
2026-04-26 04:41 25.50255 -16.34090 34001 ft 498 kts 182°
2026-04-26 04:42 25.43332 -16.34340 34001 ft 498 kts 182°
2026-04-26 04:42 25.36447 -16.34589 34002 ft 498 kts 182°
2026-04-26 04:43 25.29527 -16.34838 34001 ft 498 kts 182°
2026-04-26 04:43 25.22603 -16.35088 34001 ft 498 kts 182°
2026-04-26 04:44 25.15676 -16.35337 34001 ft 498 kts 182°
2026-04-26 04:44 25.08751 -16.35586 34002 ft 498 kts 182°
2026-04-26 04:45 25.01908 -16.36214 33995 ft 497 kts 193°
2026-04-26 04:45 24.95408 -16.38755 34004 ft 496 kts 208°
2026-04-26 04:46 24.89470 -16.42628 34003 ft 496 kts 212°
2026-04-26 04:46 24.83609 -16.46559 34001 ft 497 kts 211°
2026-04-26 04:47 24.77684 -16.50475 34001 ft 497 kts 211°
2026-04-26 04:47 24.71737 -16.54357 34001 ft 497 kts 211°
2026-04-26 04:48 24.62798 -16.60165 34001 ft 497 kts 211°
2026-04-26 04:48 24.56888 -16.64002 34002 ft 497 kts 211°
2026-04-26 04:49 24.50929 -16.67870 34001 ft 497 kts 211°
2026-04-26 04:49 24.44972 -16.71731 34001 ft 497 kts 211°
2026-04-26 04:50 24.39016 -16.75588 34001 ft 497 kts 211°
2026-04-26 04:50 24.33093 -16.79420 34001 ft 497 kts 211°
2026-04-26 04:51 24.27139 -16.83266 34001 ft 497 kts 211°
2026-04-26 04:51 24.21182 -16.87111 34002 ft 497 kts 211°
2026-04-26 04:52 24.15221 -16.90954 34002 ft 497 kts 211°
2026-04-26 04:52 24.09263 -16.94791 34001 ft 497 kts 211°
2026-04-26 04:53 24.03344 -16.98599 34001 ft 497 kts 211°
2026-04-26 04:53 23.97381 -17.02431 34001 ft 497 kts 211°
2026-04-26 04:54 23.91420 -17.06257 34001 ft 497 kts 211°
2026-04-26 04:54 23.85459 -17.10080 34001 ft 497 kts 211°
2026-04-26 04:55 23.79536 -17.13874 34001 ft 497 kts 211°
2026-04-26 04:55 23.73569 -17.17692 34002 ft 497 kts 210°
2026-04-26 04:56 23.67604 -17.21504 34001 ft 497 kts 210°
2026-04-26 04:56 23.61638 -17.25313 34001 ft 497 kts 210°
2026-04-26 04:57 23.55671 -17.29119 34001 ft 497 kts 210°
2026-04-26 04:57 23.49743 -17.32896 34001 ft 497 kts 210°
2026-04-26 04:58 23.43774 -17.36695 34001 ft 497 kts 210°
2026-04-26 04:58 23.37804 -17.40490 34001 ft 497 kts 210°
2026-04-26 04:59 23.31826 -17.44287 34000 ft 497 kts 210°
2026-04-26 04:59 23.25895 -17.48050 34001 ft 497 kts 210°
2026-04-26 05:00 23.19922 -17.51835 34002 ft 497 kts 210°
2026-04-26 05:00 23.13952 -17.55615 34001 ft 497 kts 210°
2026-04-26 05:01 23.07978 -17.59394 34001 ft 497 kts 210°
2026-04-26 05:01 23.01999 -17.63171 34001 ft 497 kts 210°
2026-04-26 05:02 22.96063 -17.66918 34001 ft 497 kts 210°
2026-04-26 05:02 22.90082 -17.70688 34001 ft 497 kts 210°
2026-04-26 05:03 22.84104 -17.74453 34001 ft 497 kts 210°
2026-04-26 05:03 22.78126 -17.78215 34001 ft 497 kts 210°
2026-04-26 05:04 22.72182 -17.81951 34002 ft 497 kts 210°
2026-04-26 05:04 22.66202 -17.85706 34001 ft 497 kts 210°
2026-04-26 05:05 22.60224 -17.89456 34001 ft 497 kts 210°
2026-04-26 05:05 22.54235 -17.93209 34001 ft 497 kts 210°
2026-04-26 05:06 22.48255 -17.96953 34001 ft 497 kts 210°
2026-04-26 05:06 22.42311 -18.00670 34001 ft 497 kts 210°
2026-04-26 05:07 22.36322 -18.04411 34000 ft 497 kts 210°
2026-04-26 05:07 22.30337 -18.08147 34001 ft 497 kts 210°
2026-04-26 05:08 22.24347 -18.11882 34002 ft 497 kts 210°
2026-04-26 05:08 22.18399 -18.15587 34000 ft 497 kts 210°
2026-04-26 05:09 22.12414 -18.19311 34001 ft 497 kts 210°
2026-04-26 05:09 22.06418 -18.23039 34001 ft 497 kts 210°
2026-04-26 05:10 22.00431 -18.26757 34001 ft 497 kts 210°
2026-04-26 05:10 21.94440 -18.30474 34000 ft 497 kts 210°
2026-04-26 05:11 21.88489 -18.34163 34002 ft 497 kts 210°
2026-04-26 05:11 21.82489 -18.37878 34001 ft 497 kts 210°
2026-04-26 05:12 21.76496 -18.41586 34001 ft 497 kts 210°
2026-04-26 05:12 21.70502 -18.45290 34001 ft 497 kts 210°
2026-04-26 05:13 21.64550 -18.48965 33999 ft 497 kts 210°
2026-04-26 05:13 21.58554 -18.52664 34001 ft 497 kts 210°
2026-04-26 05:14 21.52551 -18.56364 34001 ft 497 kts 210°
2026-04-26 05:14 21.46554 -18.60056 34000 ft 497 kts 210°
2026-04-26 05:15 21.40556 -18.63747 34002 ft 497 kts 210°
2026-04-26 05:15 21.34597 -18.67409 34001 ft 497 kts 210°
2026-04-26 05:16 21.28596 -18.71091 34002 ft 497 kts 210°
2026-04-26 05:16 21.22594 -18.74769 34001 ft 497 kts 210°
2026-04-26 05:17 21.16591 -18.78445 34001 ft 497 kts 210°
2026-04-26 05:17 21.10625 -18.82097 34002 ft 497 kts 210°
2026-04-26 05:18 21.04622 -18.85768 34001 ft 497 kts 210°
2026-04-26 05:18 20.98614 -18.89438 34002 ft 497 kts 210°
2026-04-26 05:19 20.92609 -18.93103 34001 ft 497 kts 210°
2026-04-26 05:19 20.86644 -18.96741 34001 ft 497 kts 210°
2026-04-26 05:20 20.80637 -19.00400 34001 ft 497 kts 210°
2026-04-26 05:20 20.74630 -19.04056 34001 ft 497 kts 210°
2026-04-26 05:21 20.68622 -19.07710 34001 ft 497 kts 210°
2026-04-26 05:21 20.62613 -19.11360 34001 ft 497 kts 210°
2026-04-26 05:22 20.56643 -19.14984 34001 ft 497 kts 210°
2026-04-26 05:22 20.50629 -19.18631 34001 ft 497 kts 210°
2026-04-26 05:23 20.44618 -19.22273 34001 ft 497 kts 210°
2026-04-26 05:23 20.38603 -19.25914 34001 ft 497 kts 210°
2026-04-26 05:24 20.32630 -19.29526 34001 ft 497 kts 210°
2026-04-26 05:24 20.26617 -19.33159 34002 ft 497 kts 210°
2026-04-26 05:25 20.20603 -19.36790 34001 ft 497 kts 210°
2026-04-26 05:25 20.14588 -19.40418 34001 ft 497 kts 210°
2026-04-26 05:26 20.08612 -19.44019 34001 ft 497 kts 210°
2026-04-26 05:26 20.02592 -19.47643 34001 ft 497 kts 210°
2026-04-26 05:27 19.96572 -19.51265 34000 ft 497 kts 210°
2026-04-26 05:27 19.90554 -19.54882 33999 ft 497 kts 210°
2026-04-26 05:28 19.84576 -19.58472 34001 ft 497 kts 210°
2026-04-26 05:28 19.78560 -19.62082 34001 ft 497 kts 210°
2026-04-26 05:29 19.72537 -19.65693 34001 ft 497 kts 210°
2026-04-26 05:29 19.66516 -19.69300 34002 ft 497 kts 210°
2026-04-26 05:30 19.60635 -19.73138 34004 ft 496 kts 217°
2026-04-26 05:30 19.55503 -19.77946 33998 ft 496 kts 227°
2026-04-26 05:31 19.50853 -19.83349 34005 ft 496 kts 228°
2026-04-26 05:31 19.46213 -19.88775 34001 ft 496 kts 228°
2026-04-26 05:32 19.42401 -19.93193 34002 ft 496 kts 227°
2026-04-26 05:32 19.36967 -19.99447 34002 ft 497 kts 227°
2026-04-26 05:33 19.32283 -20.04823 34001 ft 497 kts 227°
2026-04-26 05:33 19.28383 -20.09296 34001 ft 497 kts 227°
2026-04-26 05:34 19.23700 -20.14665 34000 ft 497 kts 227°
2026-04-26 05:34 19.18259 -20.20898 33994 ft 495 kts 227°
2026-04-26 05:35 19.15924 -20.23571 33893 ft 496 kts 227°
2026-04-26 05:35 19.13575 -20.26259 33635 ft 497 kts 227°
2026-04-26 05:35 19.11997 -20.28064 33462 ft 494 kts 227°
2026-04-26 05:35 19.09703 -20.30687 33213 ft 490 kts 227°
2026-04-26 05:36 19.07399 -20.33320 32954 ft 487 kts 227°
2026-04-26 05:36 19.05103 -20.35943 32698 ft 484 kts 227°
2026-04-26 05:36 19.02818 -20.38551 32459 ft 482 kts 227°
2026-04-26 05:36 19.00549 -20.41141 32218 ft 480 kts 227°
2026-04-26 05:37 18.98284 -20.43726 31963 ft 478 kts 227°
2026-04-26 05:37 18.96031 -20.46295 31716 ft 477 kts 227°
2026-04-26 05:37 18.93779 -20.48862 31465 ft 475 kts 227°
2026-04-26 05:37 18.91534 -20.51420 31112 ft 476 kts 227°
2026-04-26 05:38 18.89308 -20.53955 30725 ft 477 kts 227°
2026-04-26 05:38 18.87058 -20.56517 30330 ft 475 kts 227°
2026-04-26 05:38 18.84822 -20.59061 29925 ft 469 kts 227°
2026-04-26 05:38 18.82619 -20.61567 29519 ft 463 kts 227°
2026-04-26 05:39 18.80438 -20.64047 29114 ft 458 kts 227°
2026-04-26 05:39 18.78278 -20.66502 28721 ft 454 kts 227°
2026-04-26 05:39 18.76140 -20.68931 28312 ft 450 kts 227°
2026-04-26 05:39 18.74013 -20.71346 27925 ft 447 kts 227°
2026-04-26 05:40 18.71932 -20.73710 27516 ft 444 kts 227°
2026-04-26 05:40 18.69837 -20.76087 27120 ft 442 kts 227°
2026-04-26 05:40 18.67748 -20.78456 26717 ft 439 kts 227°
2026-04-26 05:40 18.65670 -20.80813 26313 ft 437 kts 227°
2026-04-26 05:41 18.63603 -20.83156 25926 ft 435 kts 227°
2026-04-26 05:41 18.61546 -20.85486 25523 ft 434 kts 227°
2026-04-26 05:41 18.59495 -20.87809 25160 ft 431 kts 227°
2026-04-26 05:41 18.57461 -20.90112 24812 ft 428 kts 227°
2026-04-26 05:42 18.55434 -20.92406 24464 ft 426 kts 227°
2026-04-26 05:42 18.53446 -20.94655 24115 ft 424 kts 227°
2026-04-26 05:42 18.51443 -20.96920 23742 ft 422 kts 227°
2026-04-26 05:42 18.49441 -20.99183 23364 ft 421 kts 227°
2026-04-26 05:43 18.47446 -21.01438 22991 ft 419 kts 227°
2026-04-26 05:43 18.45463 -21.03679 22619 ft 418 kts 227°
2026-04-26 05:43 18.43482 -21.05916 22244 ft 416 kts 227°
2026-04-26 05:43 18.41513 -21.08138 21874 ft 415 kts 227°
2026-04-26 05:44 18.39548 -21.10355 21498 ft 413 kts 227°
2026-04-26 05:44 18.37594 -21.12559 21121 ft 411 kts 227°
2026-04-26 05:44 18.35679 -21.14719 20755 ft 408 kts 227°
2026-04-26 05:44 18.33745 -21.16899 20368 ft 406 kts 227°
2026-04-26 05:45 18.31822 -21.19066 20000 ft 403 kts 227°
2026-04-26 05:45 18.29915 -21.21214 19629 ft 401 kts 227°
2026-04-26 05:45 18.28015 -21.23353 19263 ft 398 kts 227°
2026-04-26 05:45 18.26131 -21.25474 18875 ft 396 kts 227°
2026-04-26 05:46 18.24254 -21.27587 18509 ft 394 kts 227°
2026-04-26 05:46 18.22391 -21.29682 18128 ft 391 kts 227°
2026-04-26 05:46 18.20559 -21.31742 17754 ft 389 kts 227°
2026-04-26 05:46 18.18718 -21.33813 17383 ft 387 kts 227°
2026-04-26 05:47 18.16882 -21.35876 17008 ft 385 kts 227°
2026-04-26 05:47 18.15055 -21.37927 16633 ft 383 kts 227°
2026-04-26 05:47 18.13242 -21.39964 16260 ft 381 kts 227°
2026-04-26 05:47 18.11436 -21.41992 15885 ft 379 kts 227°
2026-04-26 05:48 18.09635 -21.44013 15512 ft 377 kts 227°
2026-04-26 05:48 18.07847 -21.46019 15123 ft 376 kts 227°
2026-04-26 05:48 18.06087 -21.47993 14763 ft 374 kts 227°
2026-04-26 05:48 18.04316 -21.49979 14391 ft 372 kts 227°
2026-04-26 05:49 18.02550 -21.51959 14022 ft 370 kts 227°
2026-04-26 05:49 17.99048 -21.55883 13271 ft 366 kts 227°
2026-04-26 05:49 17.97314 -21.57825 12898 ft 364 kts 227°
2026-04-26 05:50 17.95586 -21.59759 12532 ft 362 kts 227°
2026-04-26 05:50 17.93873 -21.61677 12149 ft 359 kts 227°
2026-04-26 05:50 17.92188 -21.63562 11780 ft 357 kts 227°
2026-04-26 05:50 17.90494 -21.65457 11404 ft 355 kts 227°
2026-04-26 05:51 17.88806 -21.67344 11029 ft 353 kts 227°
2026-04-26 05:51 17.87132 -21.69216 10648 ft 351 kts 227°
2026-04-26 05:51 17.85463 -21.71080 10276 ft 349 kts 227°
2026-04-26 05:51 17.83805 -21.72934 9906 ft 347 kts 227°
2026-04-26 05:52 17.82159 -21.74772 9536 ft 345 kts 227°
2026-04-26 05:52 17.80518 -21.76604 9152 ft 343 kts 227°
2026-04-26 05:52 17.78889 -21.78422 8784 ft 341 kts 227°
2026-04-26 05:52 17.77265 -21.80235 8409 ft 340 kts 227°
2026-04-26 05:53 17.75649 -21.82039 8067 ft 337 kts 227°
2026-04-26 05:53 17.74082 -21.83786 8008 ft 331 kts 227°
2026-04-26 05:53 17.72507 -21.85544 8011 ft 332 kts 227°
2026-04-26 05:53 17.70915 -21.87319 8010 ft 335 kts 227°
2026-04-26 05:54 17.69311 -21.89107 8008 ft 337 kts 227°
2026-04-26 05:54 17.67708 -21.90893 8004 ft 337 kts 227°
2026-04-26 05:54 17.66103 -21.92679 8000 ft 336 kts 226°
2026-04-26 05:54 17.64343 -21.94233 7989 ft 330 kts 208°
2026-04-26 05:55 17.62237 -21.95207 8012 ft 336 kts 202°
2026-04-26 05:55 17.60087 -21.96139 8009 ft 340 kts 203°
2026-04-26 05:55 17.57913 -21.97094 8003 ft 339 kts 203°
2026-04-26 05:55 17.55744 -21.98055 7995 ft 338 kts 203°
2026-04-26 05:56 17.53584 -21.99019 7998 ft 337 kts 203°
2026-04-26 05:56 17.51437 -21.99981 8001 ft 336 kts 203°
2026-04-26 05:56 17.49291 -22.00945 8001 ft 335 kts 203°
2026-04-26 05:56 17.47154 -22.01907 8002 ft 335 kts 204°
2026-04-26 05:57 17.45016 -22.02871 8003 ft 334 kts 204°
2026-04-26 05:57 17.42883 -22.03833 8002 ft 334 kts 204°
2026-04-26 05:57 17.40745 -22.04797 8002 ft 334 kts 204°
2026-04-26 05:57 17.38607 -22.05761 8003 ft 335 kts 204°
2026-04-26 05:58 17.36497 -22.06713 8002 ft 335 kts 204°
2026-04-26 05:58 17.34359 -22.07677 8000 ft 335 kts 204°
2026-04-26 05:58 17.32214 -22.08644 8002 ft 336 kts 204°
2026-04-26 05:58 17.30072 -22.09609 8002 ft 336 kts 204°
2026-04-26 05:59 17.27922 -22.10577 7999 ft 336 kts 204°
2026-04-26 05:59 17.25776 -22.11544 7999 ft 336 kts 204°
2026-04-26 05:59 17.23624 -22.12513 8002 ft 337 kts 204°
2026-04-26 05:59 17.21499 -22.13469 8001 ft 337 kts 204°
2026-04-26 06:00 17.19350 -22.14437 8003 ft 337 kts 204°
2026-04-26 06:00 17.17196 -22.15406 8002 ft 337 kts 204°
2026-04-26 06:00 17.15044 -22.16374 8002 ft 337 kts 204°
2026-04-26 06:00 17.12894 -22.17340 8000 ft 337 kts 204°
2026-04-26 06:01 17.10741 -22.18308 7997 ft 336 kts 204°
2026-04-26 06:01 17.08582 -22.19279 7818 ft 339 kts 204°
2026-04-26 06:01 17.06422 -22.20249 7575 ft 338 kts 204°
2026-04-26 06:01 17.04275 -22.21214 7321 ft 335 kts 204°
2026-04-26 06:02 17.02172 -22.22158 7070 ft 331 kts 204°
2026-04-26 06:02 17.00060 -22.23107 6817 ft 329 kts 204°
2026-04-26 06:02 16.97965 -22.24047 6568 ft 327 kts 204°
2026-04-26 06:02 16.95876 -22.24984 6317 ft 326 kts 204°
2026-04-26 06:03 16.93802 -22.25915 6064 ft 324 kts 204°
2026-04-26 06:03 16.91731 -22.26844 5843 ft 322 kts 204°
2026-04-26 06:03 16.89684 -22.27762 5677 ft 320 kts 204°
2026-04-26 06:03 16.87629 -22.28684 5550 ft 323 kts 204°
2026-04-26 06:04 16.85582 -22.29601 5394 ft 325 kts 204°
2026-04-26 06:04 16.83508 -22.30531 5255 ft 324 kts 204°
2026-04-26 06:04 16.81437 -22.31459 5103 ft 323 kts 204°
2026-04-26 06:04 16.79376 -22.32382 4949 ft 322 kts 204°
2026-04-26 06:05 16.77317 -22.33304 4803 ft 321 kts 204°
2026-04-26 06:05 16.75268 -22.34221 4653 ft 321 kts 204°
2026-04-26 06:05 16.73218 -22.35139 4503 ft 320 kts 204°
2026-04-26 06:05 16.71173 -22.36054 4339 ft 319 kts 204°
2026-04-26 06:06 16.69136 -22.36965 4202 ft 319 kts 204°
2026-04-26 06:06 16.67126 -22.37865 4053 ft 318 kts 204°
2026-04-26 06:06 16.65097 -22.38772 3902 ft 318 kts 203°
2026-04-26 06:06 16.63066 -22.39680 3768 ft 317 kts 204°
2026-04-26 06:07 16.61043 -22.40584 3602 ft 316 kts 204°
2026-04-26 06:07 16.59020 -22.41489 3455 ft 316 kts 203°
2026-04-26 06:07 16.57004 -22.42389 3305 ft 315 kts 203°
2026-04-26 06:07 16.54988 -22.43290 3155 ft 315 kts 203°
2026-04-26 06:08 16.52976 -22.44188 3004 ft 314 kts 204°
2026-04-26 06:08 16.50977 -22.45081 2849 ft 312 kts 203°
2026-04-26 06:08 16.49007 -22.45960 2716 ft 312 kts 203°
2026-04-26 06:08 16.46995 -22.46859 2599 ft 310 kts 203°
2026-04-26 06:09 16.45039 -22.47731 2548 ft 310 kts 203°
2026-04-26 06:09 16.43051 -22.48618 2510 ft 311 kts 203°
2026-04-26 06:09 16.41064 -22.49504 2504 ft 311 kts 203°
2026-04-26 06:09 16.39079 -22.50390 2506 ft 311 kts 203°
2026-04-26 06:10 16.37089 -22.51277 2502 ft 311 kts 203°
2026-04-26 06:10 16.35098 -22.52165 2499 ft 311 kts 203°
2026-04-26 06:10 16.33110 -22.53051 2500 ft 311 kts 203°
2026-04-26 06:10 16.31169 -22.53916 2491 ft 302 kts 203°
2026-04-26 06:11 16.29274 -22.54759 2479 ft 284 kts 203°
2026-04-26 06:11 16.27571 -22.55591 2478 ft 265 kts 212°
2026-04-26 06:11 16.26087 -22.56663 2494 ft 258 kts 218°
2026-04-26 06:11 16.24671 -22.57811 2500 ft 258 kts 219°
2026-04-26 06:12 16.23266 -22.58963 2504 ft 258 kts 218°
2026-04-26 06:12 16.21852 -22.60115 2504 ft 258 kts 218°
2026-04-26 06:12 16.20433 -22.61262 2503 ft 258 kts 218°
2026-04-26 06:12 16.19012 -22.62402 2502 ft 258 kts 218°
2026-04-26 06:13 16.17604 -22.63527 2503 ft 259 kts 218°
2026-04-26 06:13 16.16157 -22.64677 2501 ft 259 kts 218°
2026-04-26 06:13 16.14745 -22.65798 2502 ft 259 kts 218°
2026-04-26 06:13 16.13315 -22.66930 2502 ft 259 kts 218°
2026-04-26 06:14 16.11882 -22.68063 2500 ft 258 kts 217°
2026-04-26 06:14 16.10450 -22.69194 2499 ft 258 kts 217°
2026-04-26 06:14 16.09022 -22.70322 2504 ft 258 kts 217°
2026-04-26 06:14 16.07590 -22.71451 2502 ft 258 kts 217°
2026-04-26 06:15 16.06160 -22.72579 2500 ft 258 kts 217°
2026-04-26 06:15 16.04732 -22.73705 2501 ft 258 kts 217°
2026-04-26 06:15 16.03321 -22.74818 2499 ft 258 kts 217°
2026-04-26 06:15 16.01894 -22.75942 2500 ft 258 kts 217°
2026-04-26 06:16 16.00464 -22.77069 2502 ft 258 kts 217°
2026-04-26 06:16 15.99036 -22.78195 2503 ft 258 kts 217°
2026-04-26 06:16 15.97608 -22.79319 2502 ft 258 kts 217°
2026-04-26 06:16 15.96178 -22.80446 2501 ft 258 kts 217°
2026-04-26 06:17 15.94746 -22.81573 2500 ft 258 kts 217°
2026-04-26 06:17 15.93318 -22.82697 2498 ft 258 kts 217°
2026-04-26 06:17 15.91887 -22.83823 2501 ft 257 kts 218°
2026-04-26 06:17 15.90742 -22.85189 2491 ft 252 kts 246°
2026-04-26 06:18 15.90418 -22.86948 2514 ft 256 kts 273°
2026-04-26 06:18 15.90785 -22.88726 2498 ft 246 kts 288°
2026-04-26 06:18 15.91284 -22.90385 2483 ft 235 kts 287°
2026-04-26 06:18 15.91749 -22.91967 2482 ft 227 kts 287°
2026-04-26 06:19 15.92327 -22.93492 2486 ft 227 kts 306°
2026-04-26 06:19 15.93547 -22.94494 2495 ft 225 kts 341°
2026-04-26 06:19 15.95034 -22.94617 2498 ft 208 kts 10°
2026-04-26 06:19 15.96386 -22.94266 2531 ft 192 kts 16°
2026-04-26 06:20 15.97618 -22.93881 2512 ft 179 kts 17°
2026-04-26 06:20 15.98779 -22.93515 2518 ft 176 kts 16°
2026-04-26 06:20 15.99957 -22.93146 2513 ft 177 kts 16°
2026-04-26 06:20 16.01136 -22.92775 2502 ft 177 kts 16°
2026-04-26 06:21 16.02303 -22.92408 2492 ft 171 kts 16°
2026-04-26 06:21 16.03411 -22.92062 2474 ft 163 kts 16°
2026-04-26 06:21 16.04495 -22.91724 2320 ft 164 kts 16°
2026-04-26 06:21 16.05596 -22.91382 1894 ft 164 kts 16°
2026-04-26 06:22 16.06649 -22.91055 1481 ft 155 kts 16°
2026-04-26 06:22 16.07671 -22.90737 1192 ft 153 kts 16°
2026-04-26 06:22 16.08682 -22.90424 952 ft 151 kts 16°
2026-04-26 06:22 16.09687 -22.90112 784 ft 151 kts 16°
2026-04-26 06:23 16.10699 -22.89802 603 ft 151 kts 15°
2026-04-26 06:23 16.11671 -22.89500 359 ft 141 kts 16°
2026-04-26 06:23 16.12499 -22.89246 200 ft 140 kts 16°
2026-04-26 06:23 16.13411 -22.88961 69 ft 126 kts 16°
2026-04-26 06:24 16.14079 -22.88750 97 ft 72 kts 17°
2026-04-26 06:24 16.14400 -22.88653 100 ft 43 kts 16°
2026-04-26 06:24 16.14481 -22.88630 101 ft 0 kts
2026-04-26 06:24 16.14486 -22.88629 100 ft 1 kts
2026-04-26 06:25 16.14516 -22.88630 102 ft 7 kts 351°
2026-04-26 06:25 16.14561 -22.88641 103 ft 7 kts 356°
2026-04-26 06:25 16.14594 -22.88635 104 ft 3 kts 40°
2026-04-26 06:25 16.14561 -22.88597 104 ft 11 kts 190°
2026-04-26 06:26 16.14483 -22.88624 103 ft 13 kts 196°
2026-04-26 06:26 16.14393 -22.88651 100 ft 14 kts 195°
2026-04-26 06:26 16.14301 -22.88680 99 ft 14 kts 198°
2026-04-26 06:26 16.14209 -22.88711 100 ft 14 kts 196°
2026-04-26 06:27 16.14115 -22.88739 97 ft 15 kts 196°
2026-04-26 06:27 16.14009 -22.88775 94 ft 17 kts 199°
2026-04-26 06:27 16.13894 -22.88807 94 ft 17 kts 196°
2026-04-26 06:27 16.13778 -22.88841 93 ft 17 kts 195°
2026-04-26 06:28 16.13676 -22.88873 90 ft 9 kts 198°
2026-04-26 06:28 16.13641 -22.88887 86 ft 4 kts 205°
2026-04-26 06:28 16.13615 -22.88914 87 ft 6 kts 240°
2026-04-26 06:28 16.13613 -22.88960 85 ft 7 kts 281°
2026-04-26 06:29 16.13627 -22.89020 83 ft 10 kts 284°
2026-04-26 06:29 16.13637 -22.89056 70 ft 2 kts 287°
2026-04-26 06:29 16.13644 -22.89083 70 ft 6 kts 286°
2026-04-26 06:29 16.13646 -22.89089 69 ft 0 kts 286°